User: anonymous   Login
Location: Oshawa
(43.9000°N, 78.8670°W)
Time: 16:44:04
(UTC-04:00)
Language:

Cosmos 1408 Rocket - Orbit

View from above orbital plane
View from above orbital plane
View from above satellite
View from above satellite

Ground track
Ground track

The orbit data is extracted from the following two-line orbital elements,

1 13553U 82092B   18116.05985767  .00000089  00000-0  76682-5 0  9993
2 13553  82.5661 302.5731 0022999  90.9938  28.0785 14.84164839923447
Epoch (UTC): 26 April 2018 01:26:11
Eccentricity: 0.0022999
inclination: 82.5661°
perigee height: 600 km
apogee height: 632 km
right ascension of ascending node: 302.5731°
argument of perigee: 90.9938°
revolutions per day: 14.84164839
mean anomaly at epoch: 28.0785°
orbit number at epoch: 92344

The dashed part of the orbit path shows where the satellite is in the earth's shadow,  

DLR